Location: Unspecified
(47.9110°N, 14.3980°E)
Time: 09:55:40
(UTC+00:00)

Cosmos 1869 Rocket - Pass Details

Date: 06 August 2020
Orbit: 604 x 634 km, 82.5° (Epoch: 20 September)

Event Time Altitude Azimuth Distance (km) Brightness Sun altitude
Exits shadow 21:38:50 73° 130° (SE) 657 3.4 -22.7°
Maximum altitude 21:39:04 75° 97° (E) 650 3.5 -22.7°
Drops below altitude 10° 21:43:32 10° 13° (NNE) 2,015 6.9 -23.0°
Sets 21:45:47 0° 11° (NNE) 2,931 7.9 -23.1°
